Вернуться в каталог

NOAA 16 DEB

АктивенSSO
NORAD 41417·DEBRIS·🇺🇸 United States

Запущен Sep 21, 2000 с Vandenberg Space Force Base

Loading…

Ближайшие Пролёты (ближайшие 24 часа)

TLE

СвежийSource: Space-Track

Эпоха: Sep 14, 2026, 12:08 UTC

1 41417U 00055KW  26257.50591202  .00002870  00000-0  10649-2 0  9992
2 41417  98.7295 350.8657 0018421  76.9070 283.4168 14.32889616546081

Отслеживайте NOAA 16 DEB в реальном времени с AllMySat

Download on the App Store